{"data":{"norad_id":63963,"epoch":"2026-09-19T03:22:15.890016Z","epoch_age_seconds":264526,"freshness":"STALE","line1":"1 63963U 25099M   26262.14046169  .00010840  00000+0  40284-3 0  9994","line2":"2 63963  43.0004 163.5734 0001652 270.2209  89.8454 15.27581046 76926","mean_motion":15.27581046,"eccentricity":0.0001652,"inclination_deg":43.0004,"raan_deg":163.5734,"arg_perigee_deg":270.2209,"mean_anomaly_deg":89.8454,"bstar":0.00040284,"rev_number":7692,"period_min":94.266684165182,"perigee_km":481.9124965155,"apogee_km":484.17943136679,"semimajor_km":6861.1829639411,"source":"CELESTRAK","updated_at":"2026-09-21T09:00:35.175927Z"}}